Location: Red Deer
(52.2681°N, 113.8112°W)
Time: 23:24:38
(UTC-06:00)

CAS-4B - Pass Details

Date: 31 May 2023
Orbit: 500 x 514 km, 43.0° (Epoch: 02 October)

Event Time Altitude Azimuth Distance (km) Brightness Sun altitude
Exits shadow 04:02:24 12° 213° (SSW) 1,581 ? -9.0°
Maximum altitude 04:04:48 20° 171° (S) 1,229 ? -8.8°
Drops below altitude 10° 04:07:44 10° 123° (ESE) 1,742 ? -8.5°
Sets 04:10:24 0° 106° (ESE) 2,638 ? -8.3°
